Weather in Puerto Vallarta

Mexico     20°37′51″N   105°13′41″W
temp.,
°C
wind,
m/s
gust,
m/s
humid.,
%
clouds,
%
prec.,
mm/h
press.,
hPa
HPBL,
m
18 may, tue
tue1801:00+21ne118160 0.0 101219
04:00+20ene11800 0.0 101021
07:00+19ene11660 0.0 101119
10:00+26w11500 0.0 1013437
13:00+32wsw43350 0.0 10111066
16:00+30wsw54510 0.0 1010906
19:00+27wsw33581 0.0 1010762
22:00+22w11800 0.0 101134
19 may, wed
wed1901:00+20ne11880 0.0 101221
04:00+19ene11911 0.0 101019
07:00+19ene11890 0.0 101118
10:00+26w11580 0.0 1012525
13:00+31w54370 0.0 10101343
16:00+29wsw55470 0.0 10091108
19:00+26wsw43602 0.0 1009866
22:00+22ssw11827 0.0 101142
20 may, thu
thu2001:00+20ene11892 0.0 101121
04:00+19ene11912 0.0 101023
07:00+19ene11851 0.0 101021
10:00+26wnw11540 0.0 1010484
13:00+32w43360 0.0 10091216
16:00+30wsw65440 0.0 1008922
19:00+27wsw33563 0.0 1009913
22:00+22sw01771 0.0 101133
21 may, fri
fri2101:00+21e11820 0.0 101123
04:00+20nne11830 0.0 101019
07:00+19ne11820 0.0 101118
10:00+26wsw22550 0.0 1012510
13:00+31wsw534397 0.0 10121180
16:00+31wsw544381 0.0 10111133
19:00+27wsw325610 0.0 1010690
22:00+22wsw018031 0.0 101316
22 may, sat
sat2201:00+21ne1183100 0.0 101318
04:00+20ne118782 0.0 101219
07:00+19n11875 0.0 101319
10:00+27wnw11525 0.0 1013408
13:00+33wsw533429 0.0 10121185
16:00+32wsw543920 0.0 10101072
19:00+28wsw32513 0.0 1011788
22:00+22w11795 0.0 101318